This is the latest recevied weather packets stored in our database for station/object OH7GGX-14. If no packets are shown the sender has not sent any weather packets the latest 10 day(s).
| Time | Temp. | Humidity | Pressure | Rain* | Wind** | Luminosity | Snow |
|---|---|---|---|---|---|---|---|
| 1787471831 | 13.89° C | 99% | 997.4 hPa | 0.25 mm | - | - | - |
| 1787471231 | 13.89° C | 99% | 997.4 hPa | 0.51 mm | - | - | - |
| 1787470631 | 13.89° C | 99% | 997.4 hPa | 0.76 mm | - | - | - |
| 1787470031 | 13.89° C | 99% | 997.5 hPa | 1.27 mm | - | - | - |
| 1787469431 | 13.89° C | 99% | 997.5 hPa | 1.78 mm | - | - | - |
| 1787468831 | 13.89° C | 99% | 997.6 hPa | 2.03 mm | - | - | - |
| 1787468231 | 13.89° C | 99% | 997.8 hPa | 2.03 mm | - | - | - |
| 1787467631 | 13.89° C | 99% | 997.7 hPa | 2.03 mm | - | - | - |
| 1787467031 | 13.89° C | 99% | 997.8 hPa | 1.78 mm | - | - | - |
| 1787466431 | 13.89° C | 99% | 997.9 hPa | 1.52 mm | - | - | - |
| 1787465831 | 13.89° C | 99% | 998 hPa | 1.52 mm | - | - | - |
| 1787465231 | 13.89° C | 99% | 998 hPa | 1.52 mm | - | - | - |
| 1787464631 | 13.89° C | 99% | 998.1 hPa | 1.52 mm | - | - | - |
| 1787464031 | 13.89° C | 99% | 998.1 hPa | 1.27 mm | - | - | - |
| 1787463431 | 13.89° C | 99% | 998.4 hPa | 1.27 mm | - | - | - |
| 1787462832 | 13.89° C | 99% | 998.5 hPa | 1.27 mm | - | - | - |
| 1787462232 | 13.89° C | 99% | 998.7 hPa | 0.76 mm | - | - | - |
| 1787461632 | 13.89° C | 99% | 998.9 hPa | 0.51 mm | - | - | - |
| 1787461032 | 13.89° C | 99% | 998.9 hPa | 1.52 mm | - | - | - |
| 1787460432 | 13.89° C | 99% | 999 hPa | 2.29 mm | - | - | - |
| 1787459832 | 13.89° C | 99% | 999.1 hPa | 2.54 mm | - | - | - |
| 1787459232 | 13.89° C | 99% | 999.5 hPa | 2.29 mm | - | - | - |
| 1787458632 | 13.89° C | 99% | 999.6 hPa | 2.29 mm | - | - | - |
| 1787458032 | 13.89° C | 99% | 999.6 hPa | 2.03 mm | - | - | - |
| 1787457432 | 13.89° C | 99% | 999.7 hPa | 1.02 mm | - | - | - |
* Rain latest hour (hover to see other rain measurements)
** Current wind speed in m/s (hover to see current wind gust speed)